[[{"header":{"parameterUnit":"m.s-1","parameterCategory":1,"la1":30.2991,"la2":30.254,"lo1":-89.0895,"lo2":-89.0444,"dy":0.0017,"dx":0.0017,"nx":28,"ny":28,"refTime":"2024-06-25T21:00:00:Z","depth":0,"parameterNumber":2,"parameterNumberName":"U-component_of_WINDS"},"data":[0,0,0,0,0,0,0,0,0,0,0,0,0,0,0,0,0,0,0,0,0,0,0,0,0,0,0,0,0,0,0,0,0,0,0,0,0,0,0,0,0,0,0,0,0,0,0,0,0,0,0,0,0,0,0,0,0,0,3.7666,3.7668,0,3.7815,3.7816,3.7818,3.7782,3.7779,3.7776,3.7773,3.7937,3.7944,3.7951,0,0,0,0,0,0,0,0,0,0,0,0,0,3.7362,3.7367,3.7666,3.7668,3.767,3.7814,3.7816,3.7818,3.7783,3.7779,3.7775,3.7772,3.7935,3.7943,3.7952,0,0,0,0,0,0,0,0,0,0,0,0,0,3.7501,3.7369,3.7666,3.7669,3.7671,3.7814,3.7816,3.7819,3.7783,3.7779,3.7775,3.777,3.7932,3.7943,3.7953,3.8106,0,0,3.7986,3.799,0,0,0,0,0,0,0,0,3.7493,3.7512,3.7667,3.7669,3.7671,3.7775,3.7769,3.7916,3.7784,3.7741,3.7773,3.7768,3.7888,3.7902,3.794,3.8114,3.8121,3.7986,3.7993,3.7997,3.8,0,0,0,0,0,0,0,3.7483,3.7505,3.7725,3.7669,3.7672,3.7666,3.7681,3.7797,3.7837,3.7744,3.7742,3.776,3.7888,3.7929,3.7943,3.8123,3.7986,3.7996,3.8002,3.8006,3.843,3.8435,0,0,0,0,0,0,3.747,3.7498,3.772,3.7729,3.7569,3.7675,3.7692,3.7746,3.7836,3.7845,3.7763,3.7757,3.7913,3.7931,3.7949,3.8133,3.7997,3.8007,3.8013,3.8426,3.8431,3.8437,0,0,0,0,0,0,3.7464,3.749,3.7714,3.7613,3.7641,3.7685,3.7747,3.7752,3.7792,3.785,3.7858,3.7797,3.7911,3.7934,3.8066,3.8139,3.8012,3.8022,3.842,3.8427,3.8434,3.8504,0,0,0,0,0,0,3.7455,3.7488,3.7544,3.7614,3.7646,3.7826,3.7751,3.7758,3.7809,3.7803,3.7884,3.7893,3.7909,3.8051,3.8077,3.8151,3.803,3.8414,3.8423,3.8432,3.8495,3.8513,3.8527,0,0,0,0,0,3.7444,3.7561,3.7547,3.7574,3.7717,3.7831,3.7849,3.7862,3.7815,3.7874,3.7911,3.7891,3.8126,3.8064,3.8094,3.8172,3.8409,3.842,3.8431,3.8488,3.8509,3.8527,0,0,0,0,0,0,3.7502,3.757,3.7556,3.7697,3.7758,3.7824,3.7898,3.7884,3.7962,3.7954,3.7969,3.7988,3.8123,3.8161,3.8091,3.8325,3.8261,3.8279,3.8295,3.8315,3.8331,3.832,3.8039,0,0,0,0,0,3.753,3.7613,3.767,3.779,3.782,3.7854,3.7904,3.7908,3.7973,3.8,3.8046,3.8113,3.8202,3.8261,3.8346,3.85,3.8518,3.8569,3.8585,3.8598,3.8613,3.8698,3.8721,3.8473,3.8473,3.8473,0,0,3.7592,3.7639,3.7691,3.7802,3.785,3.7938,3.7876,3.7973,3.804,3.8016,3.8142,3.8179,3.8255,3.8399,3.8465,3.8435,3.8685,3.8612,3.8622,3.863,3.8712,3.8735,3.8756,3.848,3.8479,3.8478,0,0,3.7748,3.7791,3.7895,3.7943,3.8014,3.8036,3.8061,3.8129,3.8151,3.8278,3.8262,3.8344,3.8497,3.8551,3.8599,3.8775,3.876,3.8803,3.8888,3.897,3.8989,3.9007,3.907,3.9093,3.8818,3.8818,3.8818,0,3.7816,3.7945,3.7952,3.8049,3.81,3.8078,3.8185,3.8233,3.833,3.8367,3.8331,3.8521,3.8571,3.8727,3.877,3.8809,3.884,3.8794,3.8985,3.9003,3.9019,3.908,3.9104,3.8823,3.8822,3.8822,3.8821,0,3.8026,3.8116,3.8192,3.8282,3.8341,3.8443,3.8468,3.8528,3.8527,3.8553,3.8683,3.8741,3.8838,3.8875,3.8877,3.9033,3.9011,3.8981,3.8917,3.9048,3.9105,3.9128,3.8829,3.8828,3.8826,3.8825,0,0,3.8223,3.8313,3.8341,3.8381,3.8458,3.853,3.8632,3.8722,3.8774,3.8842,3.8929,3.9059,3.903,3.9084,3.9092,3.9164,3.93,3.9125,3.9127,3.9155,3.9476,3.9498,3.9525,3.929,3.9295,3.9298,3.9469,0,3.8386,3.8561,3.857,3.8731,3.8816,3.8796,3.8886,3.8944,3.8971,3.905,3.9082,3.9173,3.9128,3.916,3.9231,3.9269,3.9365,3.9257,3.9375,3.9379,3.9355,3.9555,3.9579,3.9737,3.9492,3.9495,3.9498,0,3.86,3.867,3.8838,3.8901,3.8937,3.9017,3.91,3.9175,3.9242,3.9257,3.9316,3.9314,3.9422,3.9354,3.9504,3.943,3.9479,3.9505,3.9511,3.9523,3.9446,3.9572,3.9788,3.9812,3.9533,3.9531,3.9528,0,3.8727,3.8864,3.8982,3.9017,3.9095,3.9151,3.9187,3.9249,3.9302,3.9377,3.9412,3.95,3.9548,3.9617,3.9639,3.9587,3.9789,3.9723,3.9806,3.9806,3.985,3.9847,4.0077,3.9881,3.9881,3.988,3.988,0,3.8908,3.9012,3.9039,3.9112,3.9229,3.9239,3.9356,3.9388,3.9444,3.9525,3.9515,3.9592,3.9616,3.9698,3.9717,3.9838,3.9861,3.9877,3.9881,3.9878,3.9876,3.9911,3.99,3.9887,3.9885,3.9884,3.9883,0,3.9069,3.9092,3.9219,3.9281,3.9299,3.9382,3.9437,3.9509,3.9534,3.9637,3.9662,3.9703,3.9799,3.9827,3.9944,3.9956,4.0099,4.0093,4.0075,4.0075,4.0157,4.0149,4.0417,4.0453,4.0235,4.0237,4.0238,0,3.9183,3.9262,3.9331,3.9383,3.9419,3.9504,3.9557,3.9572,3.9629,3.971,3.9772,3.9866,3.9942,4.0097,4.0139,4.0229,4.0225,4.0313,4.0239,4.0233,4.0226,4.0221,4.0229,4.0327,4.0329,4.0331,4.0333,0,3.9383,3.939,3.9465,3.9545,3.9608,3.9673,3.9735,3.9779,3.9803,3.9868,3.9964,4.0022,4.0139,4.0234,4.0324,4.0364,4.0354,4.0355,4.038,4.0377,4.0363,4.0372,4.0113,4.035,4.0348,4.0347,4.0346,4.0345,3.9524,3.9593,3.9652,3.9737,3.9784,3.9842,3.9912,3.9945,4.0024,4.0117,4.0122,4.0227,4.0293,4.0412,4.0457,4.0541,4.0515,4.055,4.0559,4.0568,4.0574,4.035,4.0558,4.0557,4.0557,4.0556,4.0556,0,3.9723,3.976,3.9837,3.9923,3.999,3.997,4.0038,4.0096,4.0187,4.0247,4.0321,4.0432,4.0522,4.0571,4.0662,4.072,4.0718,4.0744,4.074,4.0749,4.0592,4.0561,4.0744,4.0744,4.0744,4.0744,4.0744,4.0744,3.9834,3.9949,3.9964,4.0103,4.014,4.0239,4.0279,4.0334,4.0382,4.0504,4.0578,4.0608,4.0665,4.0759,4.0843,4.0855,4.0889,4.0918,4.0928,4.078,4.0761,4.0742,4.0714,4.0926,4.0926,4.1078,4.108,4.1081]},{"header":{"parameterUnit":"m.s-1","parameterCategory":1,"la1":30.2991,"la2":30.254,"lo1":-89.0895,"lo2":-89.0444,"dy":0.0017,"dx":0.0017,"nx":28,"ny":28,"refTime":"2024-06-25T21:00:00:Z","depth":0,"parameterNumber":3,"parameterNumberName":"V-component_of_WINDS"},"data":[0,0,0,0,0,0,0,0,0,0,0,0,0,0,0,0,0,0,0,0,0,0,0,0,0,0,0,0,0,0,0,0,0,0,0,0,0,0,0,0,0,0,0,0,0,0,0,0,0,0,0,0,0,0,0,0,0,0,3.2484,3.2485,0,3.2554,3.2555,3.2555,3.2545,3.2544,3.2542,3.2541,3.2611,3.2614,3.2616,0,0,0,0,0,0,0,0,0,0,0,0,0,3.2338,3.234,3.2484,3.2485,3.2486,3.2554,3.2555,3.2556,3.2545,3.2544,3.2542,3.2541,3.261,3.2613,3.2617,0,0,0,0,0,0,0,0,0,0,0,0,0,3.2404,3.2341,3.2484,3.2489,3.249,3.2554,3.2555,3.2556,3.2545,3.2544,3.2542,3.254,3.2609,3.2613,3.2617,3.268,0,0,3.2631,3.2633,0,0,0,0,0,0,0,0,3.24,3.2409,3.2487,3.2489,3.249,3.2539,3.2528,3.2597,3.2546,3.2524,3.2541,3.2539,3.2588,3.2594,3.2611,3.2683,3.2686,3.2631,3.2634,3.2636,3.2637,0,0,0,0,0,0,0,3.2395,3.2406,3.2512,3.2488,3.249,3.2486,3.2493,3.2541,3.2565,3.2526,3.2525,3.2534,3.2588,3.2607,3.2613,3.2687,3.2631,3.2635,3.2638,3.2639,3.2811,3.2812,0,0,0,0,0,0,3.239,3.2402,3.2509,3.2514,3.244,3.249,3.2498,3.2525,3.2565,3.2569,3.2535,3.2533,3.26,3.2607,3.2615,3.2689,3.2636,3.264,3.2642,3.2809,3.2811,3.2813,0,0,0,0,0,0,3.2387,3.24,3.2507,3.2458,3.2471,3.2495,3.2524,3.2527,3.2546,3.2572,3.2576,3.255,3.2599,3.2609,3.2663,3.2691,3.2642,3.2646,3.2806,3.2809,3.2812,3.2839,0,0,0,0,0,0,3.2383,3.2398,3.2424,3.2458,3.2474,3.2555,3.2526,3.253,3.2553,3.2551,3.2586,3.2591,3.2598,3.2657,3.2668,3.2696,3.2649,3.2804,3.2808,3.2811,3.2835,3.2842,3.2848,0,0,0,0,0,3.2377,3.2429,3.2425,3.2438,3.2506,3.2557,3.2565,3.2574,3.2556,3.258,3.2597,3.2589,3.2686,3.2662,3.2675,3.2705,3.2802,3.2807,3.2811,3.2832,3.2841,3.2848,0,0,0,0,0,0,3.2397,3.2433,3.243,3.2494,3.2522,3.2555,3.2587,3.2583,3.2616,3.2613,3.2621,3.2629,3.2684,3.27,3.2673,3.2766,3.2742,3.2748,3.2754,3.2762,3.2768,3.2763,3.2653,0,0,0,0,0,3.2408,3.2448,3.2477,3.2531,3.2545,3.2563,3.2586,3.259,3.2619,3.2631,3.2651,3.2679,3.2716,3.274,3.2775,3.2837,3.2843,3.2864,3.287,3.2875,3.2881,3.2912,3.2921,3.2827,3.2827,3.2827,0,0,3.2433,3.2458,3.2482,3.2535,3.2558,3.2596,3.2574,3.2616,3.2645,3.2637,3.269,3.2705,3.2737,3.2795,3.2821,3.281,3.2908,3.2881,3.2884,3.2887,3.2918,3.2927,3.2934,3.283,3.2829,3.2829,0,0,3.2498,3.2521,3.2567,3.259,3.2624,3.2635,3.2646,3.2679,3.2689,3.2742,3.2736,3.2769,3.2832,3.2854,3.2874,3.2943,3.2937,3.2954,3.2987,3.3017,3.3025,3.3031,3.3054,3.3063,3.296,3.296,3.296,0,3.2524,3.2583,3.2592,3.2634,3.2657,3.2651,3.2697,3.2718,3.2762,3.2776,3.2763,3.284,3.2861,3.2923,3.294,3.2956,3.2967,3.2951,3.3023,3.303,3.3036,3.3058,3.3067,3.2962,3.2962,3.2961,3.2961,0,3.2613,3.2654,3.2687,3.2729,3.2755,3.2799,3.2812,3.2837,3.2838,3.285,3.2902,3.2927,3.2965,3.298,3.2982,3.3042,3.3033,3.3021,3.2997,3.3047,3.3067,3.3076,3.2964,3.2964,3.2963,3.2963,0,0,3.2693,3.2737,3.2749,3.2767,3.2803,3.2834,3.2876,3.2914,3.2935,3.2964,3.2999,3.3051,3.3039,3.3061,3.3065,3.3092,3.3143,3.3076,3.3077,3.3087,3.3207,3.3215,3.3225,3.3139,3.314,3.3142,3.3204,0,3.276,3.2836,3.2843,3.2911,3.2947,3.2941,3.2978,3.3003,3.3014,3.3046,3.3058,3.3095,3.3078,3.309,3.3117,3.3131,3.3167,3.3127,3.3169,3.3171,3.3161,3.3236,3.3246,3.3304,3.3212,3.3214,3.3215,0,3.2849,3.288,3.2951,3.2979,3.2995,3.3028,3.3062,3.3093,3.312,3.3126,3.3149,3.3149,3.319,3.3164,3.322,3.3192,3.321,3.3219,3.3221,3.3225,3.3195,3.3241,3.3323,3.3331,3.3228,3.3227,3.3226,0,3.2898,3.2958,3.3008,3.3023,3.3058,3.3081,3.3096,3.3121,3.3143,3.3172,3.3186,3.3219,3.3238,3.3263,3.327,3.3251,3.3325,3.33,3.333,3.333,3.3346,3.3345,3.343,3.3359,3.3359,3.3359,3.3358,0,3.2971,3.3015,3.303,3.3061,3.3108,3.3115,3.3161,3.3175,3.3197,3.3228,3.3225,3.3255,3.3263,3.3293,3.3299,3.3343,3.3352,3.3357,3.3358,3.3357,3.3356,3.3368,3.3364,3.3361,3.336,3.336,3.3359,0,3.3034,3.3047,3.31,3.3128,3.3136,3.3169,3.3192,3.3221,3.3231,3.3271,3.328,3.3296,3.3332,3.3342,3.3384,3.3388,3.3439,3.3437,3.343,3.343,3.3459,3.3455,3.3554,3.3567,3.3488,3.3489,3.349,0,3.308,3.3113,3.3144,3.3165,3.3181,3.3216,3.3237,3.3244,3.3267,3.3298,3.3322,3.3357,3.3385,3.3442,3.3456,3.3488,3.3485,3.3518,3.349,3.3487,3.3484,3.3481,3.3484,3.3523,3.3524,3.3524,3.3525,0,3.3159,3.3163,3.3195,3.3228,3.3254,3.3281,3.3306,3.3323,3.3333,3.3358,3.3394,3.3416,3.3459,3.3492,3.3524,3.3538,3.3533,3.3533,3.3542,3.3541,3.3535,3.3537,3.3443,3.3531,3.3531,3.353,3.353,3.353,3.3214,3.3242,3.3268,3.3302,3.3322,3.3345,3.3372,3.3386,3.3416,3.3452,3.3454,3.3492,3.3515,3.3557,3.3573,3.3602,3.3592,3.3604,3.3607,3.361,3.3612,3.3531,3.3608,3.3607,3.3607,3.3607,3.3607,0,3.3291,3.3307,3.3339,3.3374,3.3401,3.3394,3.3421,3.3443,3.3477,3.35,3.3527,3.3567,3.3599,3.3616,3.3647,3.3667,3.3665,3.3675,3.3673,3.3676,3.362,3.3609,3.3676,3.3676,3.3676,3.3676,3.3676,3.3676,3.3335,3.3381,3.3388,3.3443,3.3458,3.3496,3.3512,3.3532,3.355,3.3595,3.3622,3.3632,3.3651,3.3684,3.3712,3.3716,3.3727,3.3738,3.374,3.3687,3.368,3.3673,3.3663,3.374,3.374,3.3793,3.3794,3.3794]}]]